{"data":{"norad_id":58405,"intl_designator":"2023-180D","name":"STARLINK-30952","alt_names":[],"object_type":"PAYLOAD","status":"ACTIVE","operator":null,"country":"US","launch_date":"2023-11-22","launch_site_code":"AFETR","launch_vehicle":null,"mission":null,"orbit_class":"UNKNOWN","rcs_meters":null,"size_class":null,"mass_kg":null,"dimensions":null,"purposes":["comms"],"wikipedia_slug":null,"has_3d_model":false,"image_url":null,"decayed_at":null,"tle_current":{"epoch":"2026-05-24T20:35:10.326624Z","epoch_age_seconds":87414,"freshness":"FRESH","line1":"1 58405U 23180D   26144.85775841  .00001342  00000+0  58262-4 0  9994","line2":"2 58405  43.0029 342.5063 0000989 280.0271  80.0469 15.27580240139162","mean_motion":15.2758024,"eccentricity":9.89e-5,"inclination_deg":43.0029,"raan_deg":342.5063,"arg_perigee_deg":280.0271,"mean_anomaly_deg":80.0469,"bstar":5.8262e-5,"rev_number":13916,"period_min":94.266733903287,"perigee_km":482.36980615958,"apogee_km":483.72694862723,"semimajor_km":6861.1853773934,"source":"CELESTRAK","updated_at":"2026-05-25T13:38:18.617016Z"}}}